Oxford, AL

12:33 AM CDT on August 26, 2016 (GMT -0500)
Anniston Metro

Weather History for KANB - April, 2013

Change the Weather History Date:

Monday, April 15, 2013

  Actual Average Record
Temperature  
Mean Temperature 67 °F 62 °F  
Max Temperature 75 °F 74 °F 89 °F (1972)
Min Temperature 58 °F 49 °F 32 °F (1950)
Degree Days  
Heating Degree Days 0    
Month to date heating degree days 89  
Since 1 July heating degree days 2594  
Growing Degree Days 15 (Base 50)    
Moisture  
Dew Point 57 °F    
Average Humidity 75    
Maximum Humidity 93    
Minimum Humidity 57    
Precipitation  
Precipitation 0.00 in 0.13 in 2.85 in (1958)
Month to date precipitation 4.17 2.09  
Year to date precipitation 22.12 16.65  
Sea Level Pressure  
Sea Level Pressure 30.01 in    
Wind  
Wind Speed 4 mph (ENE)    
Max Wind Speed 10 mph    
Max Gust Speed 14 mph    
Visibility 10 miles    
Events      
T = Trace of Precipitation, MM = Missing Value Source: NWS Daily Summary

Daily Weather History Graph

Daily Weather History Graph

Search for Another Location

Airport or City:

Trip Planner

Search our weather history database for the weather conditions in past years. The results will help you decide how hot, cold, wet, or windy it might be!

Date:

Astronomy

Apr. 15, 2013 Rise Set
Actual Time 6:12 AM CDT 7:14 PM CDT
Civil Twilight 5:47 AM CDT 7:40 PM CDT
Nautical Twilight 5:16 AM CDT 8:10 PM CDT
Astronomical Twilight 4:45 AM CDT 8:42 PM CDT
Moon 9:46 AM CDT (4/15) No Moon Set
Length of Visible Light 13h 53m
Length of Day
13h 01m
Waxing Crescent, 25% of the Moon is Illuminated
Apr 15
Waxing Crescent
Apr 18
First Quarter
Apr 25
Full
May 2
Last Quarter
May 9
New

Hourly Weather History & Observations

Time (CDT) Temp. Dew Point Humidity Pressure Visibility Wind Dir Wind Speed Gust Speed Precip Events Conditions
12:17 AM 59.0 °F 55.4 °F 88% 29.92 in 10.0 mi ESE 4.6 mph - N/A   Overcast
12:53 AM 59.0 °F 55.0 °F 87% 29.92 in 10.0 mi Calm Calm - N/A   Overcast
1:53 AM 59.0 °F 55.0 °F 87% 29.92 in 10.0 mi NE 4.6 mph - N/A   Overcast
2:53 AM 57.9 °F 55.0 °F 90% 29.92 in 10.0 mi NE 4.6 mph - N/A   Overcast
3:53 AM 59.0 °F 55.0 °F 87% 29.93 in 10.0 mi NE 4.6 mph - N/A   Overcast
4:53 AM 59.0 °F 55.9 °F 90% 29.95 in 10.0 mi NE 4.6 mph - N/A   Overcast
5:53 AM 59.0 °F 55.9 °F 90% 29.96 in 10.0 mi NE 4.6 mph - N/A   Overcast
6:53 AM 59.0 °F 55.9 °F 90% 30.00 in 9.0 mi ENE 3.5 mph - N/A   Overcast
7:53 AM 60.1 °F 55.9 °F 86% 30.02 in 9.0 mi NE 4.6 mph - N/A   Overcast
8:53 AM 62.1 °F 57.0 °F 84% 30.04 in 10.0 mi ENE 4.6 mph - N/A   Overcast
9:53 AM 64.9 °F 57.9 °F 78% 30.04 in 10.0 mi Calm Calm - N/A   Overcast
10:53 AM 66.9 °F 57.0 °F 70% 30.05 in 10.0 mi Calm Calm - N/A   Overcast
11:53 AM 69.1 °F 57.0 °F 65% 30.04 in 10.0 mi Calm Calm - N/A   Overcast
12:53 PM 70.0 °F 57.9 °F 65% 30.04 in 10.0 mi ENE 4.6 mph - N/A   Overcast
1:53 PM 71.1 °F 57.9 °F 63% 30.03 in 10.0 mi Calm Calm - N/A   Overcast
2:53 PM 72.0 °F 57.9 °F 61% 30.02 in 10.0 mi SSE 5.8 mph - N/A   Mostly Cloudy
3:53 PM 73.0 °F 59.0 °F 61% 30.00 in 10.0 mi Variable 4.6 mph - N/A   Mostly Cloudy
4:53 PM 73.0 °F 57.9 °F 59% 30.01 in 10.0 mi SE 8.1 mph - N/A   Scattered Clouds
5:53 PM 72.0 °F 59.0 °F 64% 30.02 in 10.0 mi South 5.8 mph - N/A   Clear
6:53 PM 71.1 °F 59.0 °F 66% 30.04 in 10.0 mi Variable 3.5 mph - N/A   Mostly Cloudy
7:53 PM 66.9 °F 59.0 °F 76% 30.05 in 10.0 mi East 3.5 mph - N/A   Clear
8:53 PM 66.0 °F 59.0 °F 78% 30.07 in 10.0 mi NE 5.8 mph - N/A   Clear
9:53 PM 64.9 °F 59.0 °F 81% 30.09 in 10.0 mi NE 4.6 mph - N/A   Clear
10:53 PM 64.9 °F 59.0 °F 81% 30.09 in 10.0 mi NE 4.6 mph - N/A   Clear
11:53 PM 64.0 °F 59.0 °F 84% 30.09 in 10.0 mi NE 6.9 mph - N/A   Clear